StationID,Date,MaxTemp,MinTemp,Precipitation,Snowfall,SnowDepth
"CA001022571","1994-05-01",,,20.00,0.00,0.00
"CA001022571","1994-05-02",,,6.00,0.00,0.00
"CA001022571","1994-05-03",,,99.00,0.00,0.00
"CA001022571","1994-05-04",,,38.00,0.00,0.00
"CA001022571","1994-05-05",,,0.00,0.00,0.00
"CA001022571","1994-05-06",,,0.00,0.00,0.00
"CA001022571","1994-05-07",,,0.00,0.00,0.00
"CA001022571","1994-05-08",,,0.00,0.00,0.00
"CA001022571","1994-05-09",,,0.00,0.00,0.00
"CA001022571","1994-05-10",,,0.00,0.00,0.00
"CA001022571","1994-05-11",,,0.00,0.00,0.00
"CA001022571","1994-05-12",,,4.00,0.00,0.00
"CA001022571","1994-05-13",,,79.00,0.00,0.00
"CA001022571","1994-05-14",,,48.00,0.00,0.00
"CA001022571","1994-05-15",,,56.00,0.00,0.00
"CA001022571","1994-05-16",,,7.00,0.00,0.00
"CA001022571","1994-05-17",,,0.00,0.00,0.00
"CA001022571","1994-05-18",,,0.00,0.00,0.00
"CA001022571","1994-05-19",,,0.00,0.00,0.00
"CA001022571","1994-05-20",,,7.00,0.00,0.00
"CA001022571","1994-05-21",,,9.00,0.00,0.00
"CA001022571","1994-05-22",,,5.00,0.00,0.00
"CA001022571","1994-05-23",,,0.00,0.00,0.00
"CA001022571","1994-05-24",,,0.00,0.00,0.00
"CA001022571","1994-05-25",,,0.00,0.00,0.00
"CA001022571","1994-05-26",,,0.00,0.00,0.00
"CA001022571","1994-05-27",,,0.00,0.00,0.00
"CA001022571","1994-05-28",,,157.00,0.00,0.00
"CA001022571","1994-05-29",,,9.00,0.00,0.00
"CA001022571","1994-05-30",,,12.00,0.00,0.00
"CA001022571","1994-05-31",,,8.00,0.00,0.00
"CA001022571","1994-06-01",,,8.00,0.00,0.00
"CA001022571","1994-06-02",68.90,42.80,0.00,0.00,0.00
"CA001022571","1994-06-03",71.60,45.50,4.00,0.00,0.00
"CA001022571","1994-06-04",63.50,50.90,28.00,0.00,0.00
"CA001022571","1994-06-05",62.60,44.60,20.00,0.00,0.00
"CA001022571","1994-06-06",65.30,46.40,23.00,0.00,0.00
"CA001022571","1994-06-07",62.60,41.90,3.00,0.00,0.00
"CA001022571","1994-06-08",66.20,44.60,0.00,0.00,0.00
"CA001022571","1994-06-09",73.40,46.40,0.00,0.00,0.00
"CA001022571","1994-06-10",72.50,51.80,8.00,0.00,0.00
"CA001022571","1994-06-11",67.10,49.10,70.00,0.00,0.00
"CA001022571","1994-06-12",59.00,51.80,123.00,0.00,0.00
"CA001022571","1994-06-13",61.70,48.20,47.00,0.00,0.00
"CA001022571","1994-06-14",60.80,48.20,5.00,0.00,0.00
"CA001022571","1994-06-15",64.40,45.50,0.00,0.00,0.00
"CA001022571","1994-06-16",69.80,47.30,17.00,0.00,0.00
"CA001022571","1994-06-17",67.10,48.20,104.00,0.00,0.00
"CA001022571","1994-06-18",63.50,50.00,33.00,0.00,0.00
"CA001022571","1994-06-19",68.90,43.70,0.00,0.00,0.00
"CA001022571","1994-06-20",77.00,45.50,0.00,0.00,0.00
"CA001022571","1994-06-21",78.80,50.00,0.00,0.00,0.00
"CA001022571","1994-06-22",80.60,52.70,0.00,0.00,0.00
"CA001022571","1994-06-23",59.90,52.70,29.00,0.00,0.00
"CA001022571","1994-06-24",68.00,49.10,0.00,0.00,0.00
"CA001022571","1994-06-25",74.30,47.30,0.00,0.00,0.00
"CA001022571","1994-06-26",69.80,51.80,0.00,0.00,0.00
"CA001022571","1994-06-27",75.20,49.10,0.00,0.00,0.00
"CA001022571","1994-06-28",79.70,51.80,0.00,0.00,0.00
"CA001022571","1994-06-29",73.40,51.80,0.00,0.00,0.00
"CA001022571","1994-06-30",70.70,52.70,18.00,0.00,0.00
"CA001022571","1994-07-01",66.20,54.50,43.00,0.00,0.00
"CA001022571","1994-07-02",68.00,48.20,0.00,0.00,0.00
"CA001022571","1994-07-03",68.00,48.20,0.00,0.00,0.00
"CA001022571","1994-07-04",60.80,50.00,88.00,0.00,0.00
"CA001022571","1994-07-05",76.10,47.30,0.00,0.00,0.00
"CA001022571","1994-07-06",77.00,50.00,0.00,0.00,0.00
"CA001022571","1994-07-07",80.60,53.60,0.00,0.00,0.00
"CA001022571","1994-07-08",76.10,51.80,0.00,0.00,0.00
"CA001022571","1994-07-09",77.00,48.20,0.00,0.00,0.00
"CA001022571","1994-07-10",77.90,48.20,0.00,0.00,0.00
"CA001022571","1994-07-11",78.80,48.20,0.00,0.00,0.00
"CA001022571","1994-07-12",83.30,49.10,0.00,0.00,0.00
"CA001022571","1994-07-13",80.60,53.60,0.00,0.00,0.00
"CA001022571","1994-07-14",80.60,54.50,0.00,0.00,0.00
"CA001022571","1994-07-15",81.50,52.70,0.00,0.00,0.00
"CA001022571","1994-07-16",82.40,54.50,0.00,0.00,0.00
"CA001022571","1994-07-17",78.80,56.30,12.00,0.00,0.00
"CA001022571","1994-07-18",77.00,57.20,0.00,0.00,0.00
"CA001022571","1994-07-19",86.00,51.80,0.00,0.00,0.00
"CA001022571","1994-07-20",95.00,54.50,0.00,0.00,0.00
"CA001022571","1994-07-21",93.20,60.80,0.00,0.00,0.00
"CA001022571","1994-07-22",95.00,59.00,0.00,0.00,0.00
"CA001022571","1994-07-23",88.70,63.50,0.00,0.00,0.00
"CA001022571","1994-07-24",90.50,58.10,0.00,0.00,0.00
"CA001022571","1994-07-25",74.30,59.00,0.00,0.00,0.00
"CA001022571","1994-07-26",79.70,53.60,0.00,0.00,0.00
"CA001022571","1994-07-27",85.10,52.70,0.00,0.00,0.00
"CA001022571","1994-07-28",83.30,56.30,0.00,0.00,0.00
"CA001022571","1994-07-29",77.90,55.40,0.00,0.00,0.00
"CA001022571","1994-07-30",78.80,52.70,0.00,0.00,0.00
"CA001022571","1994-07-31",80.60,51.80,0.00,0.00,0.00
"CA001022571","1994-08-01",85.10,52.70,0.00,0.00,0.00
"CA001022571","1994-08-02",86.90,57.20,4.00,0.00,0.00
"CA001022571","1994-08-03",77.00,61.70,9.00,0.00,0.00
"CA001022571","1994-08-04",78.80,58.10,0.00,0.00,0.00
"CA001022571","1994-08-05",77.90,57.20,0.00,0.00,0.00
"CA001022571","1994-08-06",77.90,50.90,14.00,0.00,0.00
"CA001022571","1994-08-07",71.60,49.10,20.00,0.00,0.00
"CA001022571","1994-08-08",69.80,55.40,9.00,0.00,0.00
"CA001022571","1994-08-09",68.90,52.70,0.00,0.00,0.00
"CA001022571","1994-08-10",80.60,50.00,0.00,0.00,0.00
"CA001022571","1994-08-11",84.20,50.90,0.00,0.00,0.00
"CA001022571","1994-08-12",84.20,58.10,0.00,0.00,0.00
"CA001022571","1994-08-13",84.20,57.20,0.00,0.00,0.00
"CA001022571","1994-08-14",77.90,57.20,0.00,0.00,0.00
"CA001022571","1994-08-15",78.80,56.30,0.00,0.00,0.00
"CA001022571","1994-08-16",69.80,54.50,146.00,0.00,0.00
"CA001022571","1994-08-17",77.90,54.50,0.00,0.00,0.00
"CA001022571","1994-08-18",80.60,53.60,3.00,0.00,0.00
"CA001022571","1994-08-19",74.30,54.50,0.00,0.00,0.00
"CA001022571","1994-08-20",71.60,53.60,0.00,0.00,0.00
"CA001022571","1994-08-21",71.60,53.60,27.00,0.00,0.00
"CA001022571","1994-08-22",68.00,53.60,6.00,0.00,0.00
"CA001022571","1994-08-23",75.20,52.70,0.00,0.00,0.00
"CA001022571","1994-08-24",76.10,45.50,0.00,0.00,0.00
"CA001022571","1994-08-25",77.00,47.30,0.00,0.00,0.00
"CA001022571","1994-08-26",78.80,49.10,0.00,0.00,0.00
"CA001022571","1994-08-27",83.30,47.30,11.00,0.00,0.00
"CA001022571","1994-08-28",74.30,52.70,4.00,0.00,0.00
"CA001022571","1994-08-29",73.40,55.40,0.00,0.00,0.00
"CA001022571","1994-08-30",78.80,50.00,0.00,0.00,0.00
"CA001022571","1994-08-31",77.00,50.90,0.00,0.00,0.00
"CA001022571","1994-09-01",75.20,50.90,0.00,0.00,0.00
"CA001022571","1994-09-02",69.80,49.10,76.00,0.00,0.00
"CA001022571","1994-09-03",65.30,50.90,25.00,0.00,0.00
"CA001022571","1994-09-04",69.80,44.60,0.00,0.00,0.00
"CA001022571","1994-09-05",77.00,47.30,0.00,0.00,0.00
"CA001022571","1994-09-06",79.70,45.50,0.00,0.00,0.00
"CA001022571","1994-09-07",72.50,50.90,72.00,0.00,0.00
"CA001022571","1994-09-08",69.80,56.30,147.00,0.00,0.00
"CA001022571","1994-09-09",58.10,47.30,179.00,0.00,0.00
"CA001022571","1994-09-10",62.60,52.70,13.00,0.00,0.00
"CA001022571","1994-09-11",68.90,43.70,0.00,0.00,0.00
"CA001022571","1994-09-12",69.80,43.70,0.00,0.00,0.00
"CA001022571","1994-09-13",68.00,46.40,27.00,0.00,0.00
"CA001022571","1994-09-14",60.80,52.70,37.00,0.00,0.00
"CA001022571","1994-09-15",66.20,56.30,6.00,0.00,0.00
"CA001022571","1994-09-16",75.20,53.60,0.00,0.00,0.00
"CA001022571","1994-09-17",77.90,52.70,0.00,0.00,0.00
"CA001022571","1994-09-18",77.00,52.70,0.00,0.00,0.00
"CA001022571","1994-09-19",78.80,50.90,0.00,0.00,0.00
"CA001022571","1994-09-20",77.90,50.90,0.00,0.00,0.00
"CA001022571","1994-09-21",83.30,48.20,0.00,0.00,0.00
"CA001022571","1994-09-22",83.30,46.40,0.00,0.00,0.00
"CA001022571","1994-09-23",80.60,48.20,0.00,0.00,0.00
"CA001022571","1994-09-24",82.40,49.10,0.00,0.00,0.00
"CA001022571","1994-09-25",75.20,50.00,0.00,0.00,0.00
"CA001022571","1994-09-26",72.50,47.30,0.00,0.00,0.00
"CA001022571","1994-09-27",76.10,45.50,0.00,0.00,0.00
"CA001022571","1994-09-28",77.00,49.10,0.00,0.00,0.00
"CA001022571","1994-09-29",73.40,50.00,0.00,0.00,0.00
"CA001022571","1994-09-30",67.10,58.10,22.00,0.00,0.00
"CA001022571","1994-10-01",68.00,55.40,0.00,0.00,0.00
"CA001022571","1994-10-02",67.10,40.10,0.00,0.00,0.00
"CA001022571","1994-10-03",68.00,36.50,0.00,0.00,0.00
"CA001022571","1994-10-04",71.60,38.30,11.00,0.00,0.00
"CA001022571","1994-10-05",65.30,41.90,4.00,0.00,0.00
"CA001022571","1994-10-06",58.10,39.20,0.00,0.00,0.00
"CA001022571","1994-10-07",65.30,35.60,0.00,0.00,0.00
"CA001022571","1994-10-08",66.20,41.90,4.00,0.00,0.00
"CA001022571","1994-10-09",61.70,46.40,0.00,0.00,0.00
"CA001022571","1994-10-10",54.50,46.40,0.00,0.00,0.00
"CA001022571","1994-10-11",56.30,46.40,0.00,0.00,0.00
"CA001022571","1994-10-12",61.70,33.80,0.00,0.00,0.00
"CA001022571","1994-10-13",49.10,36.50,166.00,0.00,0.00
"CA001022571","1994-10-14",56.30,41.00,7.00,0.00,0.00
"CA001022571","1994-10-15",59.90,34.70,0.00,0.00,0.00
"CA001022571","1994-10-16",57.20,38.30,36.00,0.00,0.00
"CA001022571","1994-10-17",57.20,39.20,5.00,0.00,0.00
"CA001022571","1994-10-18",52.70,34.70,0.00,0.00,0.00
"CA001022571","1994-10-19",52.70,40.10,13.00,0.00,0.00
"CA001022571","1994-10-20",55.40,43.70,126.00,0.00,0.00
"CA001022571","1994-10-21",56.30,37.40,6.00,0.00,0.00
"CA001022571","1994-10-22",50.90,35.60,100.00,0.00,0.00
"CA001022571","1994-10-23",53.60,44.60,6.00,0.00,0.00
"CA001022571","1994-10-24",56.30,34.70,0.00,0.00,0.00
"CA001022571","1994-10-25",52.70,39.20,224.00,0.00,0.00
"CA001022571","1994-10-26",50.00,41.00,314.00,0.00,0.00
"CA001022571","1994-10-27",50.00,41.90,23.00,0.00,0.00
"CA001022571","1994-10-28",52.70,39.20,12.00,0.00,0.00
"CA001022571","1994-10-29",51.80,32.00,28.00,0.00,0.00
"CA001022571","1994-10-30",49.10,33.80,298.00,0.00,0.00
"CA001022571","1994-10-31",51.80,41.90,7.00,0.00,0.00
"CA001022571","1994-11-01",47.30,33.80,62.00,0.00,0.00
"CA001022571","1994-11-02",46.40,32.90,19.00,0.00,0.00
"CA001022571","1994-11-03",41.00,29.30,209.00,0.00,0.00
"CA001022571","1994-11-04",45.50,32.90,0.00,0.00,0.00
"CA001022571","1994-11-05",44.60,30.20,54.00,0.00,0.00
"CA001022571","1994-11-06",45.50,36.50,13.00,0.00,0.00
"CA001022571","1994-11-07",45.50,32.00,26.00,0.00,0.00
"CA001022571","1994-11-08",45.50,37.40,255.00,0.00,0.00
"CA001022571","1994-11-09",47.30,41.00,30.00,0.00,0.00
"CA001022571","1994-11-10",46.40,37.40,0.00,0.00,0.00
"CA001022571","1994-11-11",45.50,40.10,46.00,0.00,0.00
"CA001022571","1994-11-12",43.70,29.30,4.00,0.00,0.00
"CA001022571","1994-11-13",47.30,31.10,155.00,0.00,0.00
"CA001022571","1994-11-14",48.20,40.10,67.00,0.00,0.00
"CA001022571","1994-11-15",42.80,41.00,54.00,0.00,0.00
"CA001022571","1994-11-16",41.90,34.70,8.00,0.00,0.00
"CA001022571","1994-11-17",46.40,28.40,0.00,0.00,0.00
"CA001022571","1994-11-18",41.90,26.60,48.00,0.00,0.00
"CA001022571","1994-11-19",43.70,33.80,172.00,0.00,0.00
"CA001022571","1994-11-20",40.10,28.40,0.00,0.00,0.00
"CA001022571","1994-11-21",42.80,24.80,0.00,0.00,0.00
"CA001022571","1994-11-22",40.10,29.30,110.00,10.00,0.00
"CA001022571","1994-11-23",42.80,31.10,0.00,0.00,
"CA001022571","1994-11-24",39.20,32.00,21.00,0.00,
"CA001022571","1994-11-25",41.00,32.90,8.00,0.00,
"CA001022571","1994-11-26",37.40,27.50,85.00,0.00,
"CA001022571","1994-11-27",42.80,32.00,26.00,0.00,
"CA001022571","1994-11-28",41.90,32.00,177.00,0.00,
"CA001022571","1994-11-29",51.80,33.80,289.00,0.00,0.00
"CA001022571","1994-11-30",50.90,39.20,110.00,0.00,0.00
"CA001022571","1994-12-01",38.30,32.90,122.00,13.00,0.00
"CA001022571","1994-12-02",33.80,29.30,0.00,0.00,
"CA001022571","1994-12-03",30.20,25.70,0.00,0.00,
"CA001022571","1994-12-04",30.20,17.60,0.00,0.00,
"CA001022571","1994-12-05",32.00,19.40,53.00,53.00,
"CA001022571","1994-12-06",38.30,26.60,53.00,5.00,
"CA001022571","1994-12-07",36.50,28.40,47.00,0.00,
"CA001022571","1994-12-08",39.20,32.00,83.00,0.00,
"CA001022571","1994-12-09",38.30,31.10,35.00,0.00,
"CA001022571","1994-12-10",39.20,33.80,19.00,0.00,
"CA001022571","1994-12-11",43.70,36.50,50.00,0.00,
"CA001022571","1994-12-12",41.90,38.30,5.00,0.00,
"CA001022571","1994-12-13",40.10,35.60,0.00,0.00,
"CA001022571","1994-12-14",35.60,29.30,60.00,0.00,
"CA001022571","1994-12-15",40.10,32.90,323.00,0.00,
"CA001022571","1994-12-16",46.40,37.40,210.00,0.00,
"CA001022571","1994-12-17",52.70,41.00,187.00,0.00,
"CA001022571","1994-12-18",48.20,41.00,256.00,0.00,
"CA001022571","1994-12-19",49.10,41.90,663.00,0.00,
"CA001022571","1994-12-20",48.20,43.70,93.00,0.00,
"CA001022571","1994-12-21",46.40,36.50,10.00,0.00,
"CA001022571","1994-12-22",43.70,33.80,16.00,0.00,
"CA001022571","1994-12-23",42.80,35.60,5.00,0.00,
"CA001022571","1994-12-24",45.50,35.60,4.00,0.00,
"CA001022571","1994-12-25",44.60,31.10,747.00,0.00,
"CA001022571","1994-12-26",45.50,38.30,342.00,0.00,
"CA001022571","1994-12-27",47.30,42.80,186.00,0.00,
"CA001022571","1994-12-28",41.00,34.70,6.00,0.00,
"CA001022571","1994-12-29",36.50,28.40,0.00,0.00,
"CA001022571","1994-12-30",38.30,24.80,0.00,0.00,
"CA001022571","1994-12-31",39.20,22.10,0.00,0.00,
"CA001022571","1995-01-01",36.50,19.40,0.00,0.00,0.00
"CA001022571","1995-01-02",36.50,20.30,0.00,0.00,0.00
"CA001022571","1995-01-03",38.30,17.60,0.00,0.00,0.00
"CA001022571","1995-01-04",34.70,16.70,0.00,0.00,0.00
"CA001022571","1995-01-05",36.50,18.50,0.00,0.00,0.00
"CA001022571","1995-01-06",36.50,22.10,0.00,0.00,0.00
"CA001022571","1995-01-07",34.70,23.00,73.00,12.00,0.00
"CA001022571","1995-01-08",42.80,32.90,112.00,0.00,
"CA001022571","1995-01-09",41.90,35.60,63.00,0.00,0.00
"CA001022571","1995-01-10",46.40,37.40,67.00,0.00,0.00
"CA001022571","1995-01-11",46.40,36.50,102.00,0.00,0.00
"CA001022571","1995-01-12",47.30,39.20,73.00,0.00,0.00
"CA001022571","1995-01-13",43.70,36.50,231.00,0.00,0.00
"CA001022571","1995-01-14",42.80,38.30,196.00,0.00,0.00
"CA001022571","1995-01-15",46.40,36.50,0.00,0.00,0.00
"CA001022571","1995-01-16",44.60,38.30,10.00,0.00,0.00
"CA001022571","1995-01-17",41.90,32.00,292.00,0.00,0.00
"CA001022571","1995-01-18",44.60,39.20,193.00,0.00,0.00
"CA001022571","1995-01-19",44.60,33.80,0.00,0.00,0.00
"CA001022571","1995-01-20",44.60,30.20,0.00,0.00,0.00
"CA001022571","1995-01-21",43.70,27.50,0.00,0.00,0.00
"CA001022571","1995-01-22",42.80,24.80,0.00,0.00,0.00
"CA001022571","1995-01-23",44.60,26.60,0.00,0.00,0.00
"CA001022571","1995-01-24",44.60,27.50,10.00,0.00,0.00
"CA001022571","1995-01-25",43.70,28.40,18.00,0.00,0.00
"CA001022571","1995-01-26",45.50,32.90,0.00,0.00,0.00
"CA001022571","1995-01-27",44.60,37.40,7.00,0.00,0.00
"CA001022571","1995-01-28",48.20,33.80,361.00,0.00,0.00
"CA001022571","1995-01-29",51.80,42.80,58.00,0.00,0.00
"CA001022571","1995-01-30",53.60,38.30,255.00,0.00,0.00
"CA001022571","1995-01-31",52.70,46.40,284.00,0.00,0.00
"CA001022571","1995-02-01",50.00,43.70,24.00,0.00,0.00
"CA001022571","1995-02-02",46.40,38.30,50.00,0.00,0.00
"CA001022571","1995-02-03",46.40,41.00,4.00,0.00,0.00
"CA001022571","1995-02-04",50.00,38.30,4.00,0.00,0.00
"CA001022571","1995-02-05",46.40,38.30,80.00,0.00,0.00
"CA001022571","1995-02-06",50.00,43.70,0.00,0.00,0.00
"CA001022571","1995-02-07",52.70,33.80,0.00,0.00,0.00
"CA001022571","1995-02-08",57.20,29.30,0.00,0.00,0.00
"CA001022571","1995-02-09",50.90,30.20,0.00,0.00,0.00
"CA001022571","1995-02-10",46.40,30.20,0.00,0.00,0.00
"CA001022571","1995-02-11",49.10,37.40,51.00,51.00,0.00
"CA001022571","1995-02-12",33.80,31.10,0.00,0.00,
"CA001022571","1995-02-13",33.80,23.90,0.00,0.00,
"CA001022571","1995-02-14",33.80,19.40,250.00,250.00,
"CA001022571","1995-02-15",43.70,30.20,38.00,0.00,
"CA001022571","1995-02-16",41.00,32.00,191.00,0.00,
"CA001022571","1995-02-17",50.00,34.70,153.00,0.00,
"CA001022571","1995-02-18",43.70,35.60,552.00,0.00,
"CA001022571","1995-02-19",51.80,37.40,191.00,0.00,0.00
"CA001022571","1995-02-20",54.50,46.40,147.00,0.00,0.00
"CA001022571","1995-02-21",46.40,36.50,18.00,0.00,0.00
"CA001022571","1995-02-22",48.20,34.70,0.00,0.00,0.00
"CA001022571","1995-02-23",56.30,31.10,44.00,0.00,0.00
"CA001022571","1995-02-24",53.60,38.30,38.00,0.00,0.00
"CA001022571","1995-02-25",48.20,40.10,0.00,0.00,0.00
"CA001022571","1995-02-26",50.00,28.40,0.00,0.00,0.00
"CA001022571","1995-02-27",47.30,25.70,0.00,0.00,0.00
"CA001022571","1995-02-28",50.90,23.90,0.00,0.00,0.00
"CA001022571","1995-03-01",48.20,23.90,0.00,0.00,0.00
"CA001022571","1995-03-02",51.80,23.00,0.00,0.00,0.00
"CA001022571","1995-03-03",50.00,23.90,28.00,0.00,0.00
"CA001022571","1995-03-04",46.40,32.00,32.00,20.00,0.00
"CA001022571","1995-03-05",41.00,32.00,16.00,0.00,
"CA001022571","1995-03-06",40.10,32.90,5.00,0.00,
"CA001022571","1995-03-07",44.60,30.20,2.00,0.00,
"CA001022571","1995-03-08",40.10,32.90,392.00,20.00,
"CA001022571","1995-03-09",51.80,36.50,248.00,0.00,
"CA001022571","1995-03-10",50.00,42.80,144.00,0.00,0.00
"CA001022571","1995-03-11",50.90,41.90,43.00,0.00,0.00
"CA001022571","1995-03-12",50.90,35.60,108.00,0.00,0.00
"CA001022571","1995-03-13",50.90,41.00,108.00,0.00,0.00
"CA001022571","1995-03-14",55.40,43.70,115.00,0.00,0.00
"CA001022571","1995-03-15",56.30,39.20,6.00,0.00,0.00
"CA001022571","1995-03-16",53.60,35.60,0.00,0.00,0.00
"CA001022571","1995-03-17",58.10,38.30,103.00,0.00,0.00
"CA001022571","1995-03-18",59.00,43.70,66.00,0.00,0.00
"CA001022571","1995-03-19",48.20,37.40,240.00,0.00,0.00
"CA001022571","1995-03-20",53.60,40.10,148.00,0.00,0.00
"CA001022571","1995-03-21",46.40,39.20,48.00,0.00,0.00
"CA001022571","1995-03-22",42.80,33.80,92.00,0.00,0.00
"CA001022571","1995-03-23",53.60,32.90,18.00,0.00,0.00
"CA001022571","1995-03-24",50.00,31.10,0.00,0.00,0.00
"CA001022571","1995-03-25",51.80,29.30,0.00,0.00,0.00
"CA001022571","1995-03-26",56.30,30.20,0.00,0.00,0.00
"CA001022571","1995-03-27",61.70,32.00,0.00,0.00,0.00
"CA001022571","1995-03-28",65.30,32.90,0.00,0.00,0.00
"CA001022571","1995-03-29",65.30,34.70,0.00,0.00,0.00
"CA001022571","1995-03-30",65.30,33.80,0.00,0.00,0.00
"CA001022571","1995-03-31",57.20,41.00,15.00,0.00,0.00
"CA001022571","1995-04-01",57.20,35.60,12.00,0.00,0.00
"CA001022571","1995-04-02",51.80,42.80,7.00,0.00,0.00
"CA001022571","1995-04-03",65.30,36.50,11.00,0.00,0.00
"CA001022571","1995-04-04",59.90,45.50,4.00,0.00,0.00
"CA001022571","1995-04-05",55.40,35.60,6.00,0.00,0.00
"CA001022571","1995-04-06",55.40,39.20,57.00,0.00,0.00
"CA001022571","1995-04-07",54.50,44.60,112.00,0.00,0.00
"CA001022571","1995-04-08",55.40,39.20,6.00,0.00,0.00
"CA001022571","1995-04-09",57.20,35.60,3.00,0.00,0.00
"CA001022571","1995-04-10",44.60,36.50,145.00,0.00,0.00
"CA001022571","1995-04-11",55.40,31.10,0.00,0.00,0.00
"CA001022571","1995-04-12",42.80,33.80,170.00,0.00,0.00
"CA001022571","1995-04-13",52.70,38.30,6.00,0.00,0.00
"CA001022571","1995-04-14",53.60,32.00,3.00,0.00,0.00
"CA001022571","1995-04-15",56.30,33.80,0.00,0.00,0.00
"CA001022571","1995-04-16",59.90,31.10,0.00,0.00,0.00
"CA001022571","1995-04-17",55.40,41.00,10.00,0.00,0.00
"CA001022571","1995-04-18",53.60,36.50,0.00,0.00,0.00
"CA001022571","1995-04-19",53.60,32.90,13.00,0.00,0.00
"CA001022571","1995-04-20",50.90,41.00,26.00,0.00,0.00
"CA001022571","1995-04-21",62.60,35.60,0.00,0.00,0.00
"CA001022571","1995-04-22",68.00,36.50,0.00,0.00,0.00
"CA001022571","1995-04-23",69.80,37.40,0.00,0.00,0.00
"CA001022571","1995-04-24",68.00,38.30,0.00,0.00,0.00
"CA001022571","1995-04-25",73.40,39.20,0.00,0.00,0.00
"CA001022571","1995-04-26",70.70,38.30,6.00,0.00,0.00
"CA001022571","1995-04-27",73.40,48.20,0.00,0.00,0.00
"CA001022571","1995-04-28",68.90,50.00,0.00,0.00,0.00
"CA001022571","1995-04-29",67.10,44.60,9.00,0.00,0.00
"CA001022571","1995-04-30",62.60,45.50,0.00,0.00,0.00
"CA001022571","1995-05-01",62.60,41.00,19.00,0.00,0.00
"CA001022571","1995-05-02",62.60,48.20,9.00,0.00,0.00
"CA001022571","1995-05-03",59.90,42.80,4.00,0.00,0.00
"CA001022571","1995-05-04",64.40,41.00,0.00,0.00,0.00
"CA001022571","1995-05-05",70.70,42.80,0.00,0.00,0.00
"CA001022571","1995-05-06",70.70,41.90,0.00,0.00,0.00
"CA001022571","1995-05-07",69.80,43.70,0.00,0.00,0.00
"CA001022571","1995-05-08",71.60,45.50,16.00,0.00,0.00
"CA001022571","1995-05-09",60.80,49.10,75.00,0.00,0.00
"CA001022571","1995-05-10",59.90,49.10,75.00,0.00,0.00
"CA001022571","1995-05-11",62.60,45.50,8.00,0.00,0.00
"CA001022571","1995-05-12",61.70,38.30,0.00,0.00,0.00
"CA001022571","1995-05-13",77.00,41.90,0.00,0.00,0.00
"CA001022571","1995-05-14",72.50,44.60,0.00,0.00,0.00
"CA001022571","1995-05-15",72.50,46.40,0.00,0.00,0.00
"CA001022571","1995-05-16",68.00,49.10,0.00,0.00,0.00
"CA001022571","1995-05-17",64.40,45.50,12.00,0.00,0.00
"CA001022571","1995-05-18",63.50,42.80,0.00,0.00,0.00
"CA001022571","1995-05-19",70.70,38.30,0.00,0.00,0.00
"CA001022571","1995-05-20",70.70,40.10,0.00,0.00,0.00
"CA001022571","1995-05-21",75.20,41.00,0.00,0.00,0.00
"CA001022571","1995-05-22",78.80,41.90,0.00,0.00,0.00
"CA001022571","1995-05-23",77.00,41.90,0.00,0.00,0.00
"CA001022571","1995-05-24",83.30,44.60,0.00,0.00,0.00
"CA001022571","1995-05-25",83.30,50.00,0.00,0.00,0.00
"CA001022571","1995-05-26",74.30,51.80,0.00,0.00,0.00
"CA001022571","1995-05-27",75.20,50.90,0.00,0.00,0.00
"CA001022571","1995-05-28",79.70,49.10,0.00,0.00,0.00
"CA001022571","1995-05-29",79.70,48.20,0.00,0.00,0.00
"CA001022571","1995-05-30",77.00,53.60,0.00,0.00,0.00
"CA001022571","1995-05-31",74.30,48.20,0.00,0.00,0.00
"CA001022571","1995-06-01",77.00,49.10,0.00,0.00,0.00
"CA001022571","1995-06-02",73.40,54.50,0.00,0.00,0.00
"CA001022571","1995-06-03",75.20,50.00,5.00,0.00,0.00
"CA001022571","1995-06-04",65.30,52.70,28.00,0.00,0.00
"CA001022571","1995-06-05",68.00,44.60,0.00,0.00,0.00
"CA001022571","1995-06-06",67.10,46.40,0.00,0.00,0.00
"CA001022571","1995-06-07",68.90,50.00,0.00,0.00,0.00
"CA001022571","1995-06-08",81.50,49.10,0.00,0.00,0.00
"CA001022571","1995-06-09",81.50,58.10,34.00,0.00,0.00
"CA001022571","1995-06-10",59.00,54.50,109.00,0.00,0.00
"CA001022571","1995-06-11",64.40,42.80,21.00,0.00,0.00
"CA001022571","1995-06-12",57.20,47.30,46.00,0.00,0.00
"CA001022571","1995-06-13",60.80,45.50,32.00,0.00,0.00
"CA001022571","1995-06-14",66.20,50.00,9.00,0.00,0.00
"CA001022571","1995-06-15",67.10,50.90,4.00,0.00,0.00
"CA001022571","1995-06-16",72.50,53.60,4.00,0.00,0.00
"CA001022571","1995-06-17",62.60,50.90,78.00,0.00,0.00
"CA001022571","1995-06-18",65.30,46.40,0.00,0.00,0.00
"CA001022571","1995-06-19",68.00,49.10,0.00,0.00,0.00
"CA001022571","1995-06-20",64.40,53.60,0.00,0.00,0.00
"CA001022571","1995-06-21",68.90,50.90,0.00,0.00,0.00
"CA001022571","1995-06-22",72.50,54.50,0.00,0.00,0.00
"CA001022571","1995-06-23",75.20,53.60,0.00,0.00,0.00
"CA001022571","1995-06-24",77.00,56.30,0.00,0.00,0.00
"CA001022571","1995-06-25",77.00,51.80,0.00,0.00,0.00
"CA001022571","1995-06-26",79.70,49.10,0.00,0.00,0.00
"CA001022571","1995-06-27",85.10,48.20,0.00,0.00,0.00
"CA001022571","1995-06-28",90.50,50.90,0.00,0.00,0.00
"CA001022571","1995-06-29",89.60,54.50,0.00,0.00,0.00
"CA001022571","1995-06-30",95.90,53.60,0.00,0.00,0.00
"CA001022571","1995-07-01",83.30,57.20,4.00,0.00,0.00
"CA001022571","1995-07-02",77.00,59.90,0.00,0.00,0.00
"CA001022571","1995-07-03",75.20,55.40,0.00,0.00,0.00
"CA001022571","1995-07-04",77.00,55.40,0.00,0.00,0.00
"CA001022571","1995-07-05",75.20,50.00,0.00,0.00,0.00
"CA001022571","1995-07-06",78.80,50.90,0.00,0.00,0.00
"CA001022571","1995-07-07",71.60,53.60,0.00,0.00,0.00
"CA001022571","1995-07-08",77.90,51.80,0.00,0.00,0.00
"CA001022571","1995-07-09",65.30,58.10,146.00,0.00,0.00
"CA001022571","1995-07-10",67.10,50.00,52.00,0.00,0.00
"CA001022571","1995-07-11",70.70,48.20,25.00,0.00,0.00
"CA001022571","1995-07-12",77.90,50.00,3.00,0.00,0.00
"CA001022571","1995-07-13",68.90,54.50,5.00,0.00,0.00
"CA001022571","1995-07-14",75.20,59.00,2.00,0.00,0.00